Weather History for Estherville, IA

Change the Weather History Date:

Sunday, March 31, 2013

  Actual Average Record
Temperature  
Mean Temperature 31 °F 40 °F  
Max Temperature 40 °F 50 °F 84 °F (1968)
Min Temperature 22 °F 30 °F 1 °F (1969)
Degree Days  
Heating Degree Days 34 25  
Month to date heating degree days 1199 999  
Since 1 July heating degree days 6838 6915  
Cooling Degree Days 0 0  
Month to date cooling degree days 0 0  
Year to date cooling degree days 0 0  
Moisture  
Dew Point 27 °F    
Average Humidity 72    
Maximum Humidity 96    
Minimum Humidity 47    
Precipitation  
Precipitation 0.00 in 0.10 in 0.88 in (2007)
Month to date precipitation 1.05 1.65  
Sea Level Pressure  
Sea Level Pressure 29.97 in    
Wind  
Wind Speed 19 mph (NW)    
Max Wind Speed 30 mph    
Max Gust Speed 38 mph    
Visibility 6 miles    
Events Fog    
T = Trace of Precipitation, MM = Missing Value Source: NWS Daily Summary

Daily Weather History Graph

Daily Weather History Graph

Search for Another Location

Airport:

Trip Planner

Search our weather history database for the weather conditions in past years. The results will help you decide how hot, cold, wet, or windy it might be!

Date:

Astronomy

Mar. 31, 2013 Rise Set
Actual Time 7:02 AM CDT 7:44 PM CDT
Civil Twilight 6:33 AM CDT 8:13 PM CDT
Nautical Twilight 5:59 AM CDT 8:47 PM CDT
Astronomical Twilight 5:23 AM CDT 9:23 PM CDT
Moon No Moon Rise 9:43 AM CDT (3/31)
Length of Visible Light 13h 40m
Length of Day
12h 42m
Waning Gibbous, 77% of the Moon is Illuminated
Mar 31
Waning Gibbous
Apr 2
Last Quarter
Apr 10
New
Apr 18
First Quarter
Apr 25
Full

Hourly Weather History & Observations

Time (CDT) Temp. Windchill Dew Point Humidity Pressure Visibility Wind Dir Wind Speed Gust Speed Precip Events Conditions
12:08 AM 35.6 °F 28.0 °F 33.8 °F 93% 29.90 in 2.5 mi NW 10.4 mph - N/A   Clear
12:52 AM 34.0 °F 28.0 °F 32.0 °F 92% 29.92 in 2.0 mi WNW 6.9 mph - N/A   Clear
1:30 AM 33.8 °F 27.7 °F 30.2 °F 87% 29.90 in 1.8 mi WNW 6.9 mph - N/A   Clear
1:52 AM 33.1 °F 25.5 °F 30.9 °F 92% 29.92 in 1.8 mi NW 9.2 mph - N/A   Clear
2:11 AM 32.0 °F 23.6 °F 30.2 °F 93% 29.90 in 2.0 mi NW 10.4 mph - N/A   Clear
2:18 AM 32.0 °F 23.6 °F 30.2 °F 93% 29.91 in 1.8 mi NW 10.4 mph - N/A   Scattered Clouds
2:24 AM 32.0 °F 22.5 °F 30.2 °F 93% 29.91 in 1.0 mi NW 12.7 mph - N/A   Mist
2:31 AM 32.0 °F 21.2 °F 30.2 °F 93% 29.91 in 0.2 mi NW 16.1 mph - N/A Fog Fog
2:52 AM 33.1 °F 22.6 °F 32.0 °F 96% 29.94 in 0.5 mi NW 16.1 mph - N/A Fog Fog
3:02 AM 33.8 °F 24.8 °F 32.0 °F 93% 29.91 in 1.2 mi NW 12.7 mph - N/A   Overcast
3:24 AM 33.8 °F 24.8 °F 32.0 °F 93% 29.90 in 2.5 mi NW 12.7 mph - N/A   Overcast
3:32 AM 33.8 °F 25.8 °F 32.0 °F 93% 29.90 in 4.0 mi NW 10.4 mph - N/A   Overcast
3:52 AM 33.1 °F 23.4 °F 32.0 °F 96% 29.92 in 2.5 mi WNW 13.8 mph - N/A   Overcast
4:30 AM 33.8 °F 24.3 °F 30.2 °F 87% 29.89 in 4.0 mi WNW 13.8 mph - N/A   Overcast
4:40 AM 33.8 °F 24.3 °F 30.2 °F 87% 29.88 in 4.0 mi WNW 13.8 mph - N/A   Mostly Cloudy
4:52 AM 33.1 °F 24.4 °F 30.9 °F 92% 29.90 in 4.0 mi WNW 11.5 mph - N/A   Overcast
5:52 AM 33.1 °F 24.9 °F 30.9 °F 92% 29.89 in 8.0 mi WNW 10.4 mph - N/A   Clear
6:52 AM 34.0 °F 25.5 °F 30.9 °F 89% 29.90 in 8.0 mi WNW 11.5 mph - N/A   Clear
7:52 AM 34.0 °F 25.5 °F 30.9 °F 89% 29.91 in 7.0 mi WNW 11.5 mph - N/A   Clear
8:52 AM 35.1 °F 25.5 °F 30.9 °F 85% 29.92 in 8.0 mi NW 15.0 mph - N/A   Clear
9:48 AM 35.6 °F 23.2 °F 28.4 °F 75% 29.91 in 9.0 mi NW 26.5 mph 31.1 mph N/A   Mostly Cloudy
9:52 AM 36.0 °F 23.7 °F 28.9 °F 76% 29.94 in 9.0 mi NW 26.5 mph 31.1 mph N/A   Mostly Cloudy
10:52 AM 36.0 °F 23.7 °F 28.0 °F 73% 29.97 in 9.0 mi NW 26.5 mph 34.5 mph N/A   Overcast
11:52 AM 37.9 °F 26.1 °F 28.0 °F 68% 29.99 in 9.0 mi NNW 27.6 mph 35.7 mph N/A   Mostly Cloudy
12:38 PM 39.2 °F 28.3 °F 26.6 °F 61% 29.96 in 10.0 mi NW 25.3 mph 38.0 mph N/A   Scattered Clouds
12:52 PM 37.9 °F 26.8 °F 26.1 °F 62% 29.99 in 10.0 mi NNW 24.2 mph 32.2 mph N/A   Mostly Cloudy
1:52 PM 37.0 °F 25.6 °F 24.1 °F 59% 30.00 in 10.0 mi NNW 24.2 mph 33.4 mph N/A   Mostly Cloudy
2:52 PM 39.0 °F 28.5 °F 26.1 °F 60% 30.00 in 10.0 mi NNW 23.0 mph 32.2 mph N/A   Mostly Cloudy
3:52 PM 39.0 °F 28.3 °F 21.9 °F 50% 30.00 in 10.0 mi NNW 24.2 mph 31.1 mph N/A   Scattered Clouds
4:52 PM 36.0 °F 24.4 °F 17.1 °F 46% 30.02 in 10.0 mi NNW 23.0 mph 32.2 mph N/A   Clear
5:52 PM 34.0 °F 22.4 °F 19.9 °F 56% 30.04 in 10.0 mi NNW 20.7 mph - N/A   Scattered Clouds
6:52 PM 30.9 °F 18.7 °F 19.0 °F 61% 30.06 in 10.0 mi NNW 19.6 mph 26.5 mph N/A   Overcast
7:52 PM 28.9 °F 15.8 °F 19.0 °F 67% 30.09 in 10.0 mi NNW 20.7 mph 27.6 mph N/A   Scattered Clouds
8:52 PM 27.0 °F 12.8 °F 18.0 °F 69% 30.12 in 10.0 mi NNW 21.9 mph - N/A   Clear
9:52 PM 25.0 °F 10.9 °F 16.0 °F 69% 30.15 in 10.0 mi NNW 19.6 mph 31.1 mph N/A   Clear
10:52 PM 24.1 °F 8.7 °F 17.1 °F 75% 30.17 in 10.0 mi NNW 23.0 mph 29.9 mph N/A   Clear
11:52 PM 23.0 °F 7.2 °F 15.1 °F 72% 30.18 in 10.0 mi NNW 23.0 mph 29.9 mph N/A   Clear